Showing default

PAUSAT-1, 62653

Orbit data source: Space-Track

PAUSAT-1, 62653 is a Turkish payload satellite in SSO that was launched on Tue, 14 Jan 2025 UTC via an FALCON 9 launch vehicle from the Air Force Western Test Range (AFWTR). Payload-class satellites include a variety of spacecraft equipped with specific instruments for various scientific and technological missions. These include communications satellites like Starlink; space stations such as the ISS; scientific satellites like the Hubble; Earth observation satellites from companies like Planet Labs, Umbra, and HawkEye 360; GPS; miniature CubeSats for education and research; and military/defense satellites.

Loading next visibility...
Identifier
62653, 2025-009AW
Orbit
SSO
Country
Flag of TRTR / TURK
Related business
Manufacturer
ITUTR/PAU
Mission
Operational Amateur Imaging
Bus & Motor
CUBESAT 16U, Unknown motor
Mass
~30 kg wet, ~30 kg dry
Launch date (UTC)
2025-01-14 (2 years ago)
Launch vehicle
FALCON 9
Launch site
Air Force Western Test Range (AFWTR)
Object type
Payload
Rocket body
Debris
Shape & HBR
Box + 2 Pan, 0.3 m
Radar Cross Section
0.124 m², Medium (>0.1 m² and < 1m²)

Expand to show TLE details & history
Last TLE update: 7 hours ago

TLE from 7 hours ago
0 PAUSAT-1
1 62653U 25009AW  26238.11387678  .00003646  00000-0  15336-3 0  9990
2 62653  97.3923 316.7720 0003235  85.2830 274.8777 15.24020563 89436
Epoch: 2026-08-26T02:43Z
TLE epoch observation values (Epoch: 2026-08-26T02:43:58.953Z)
Latitude
-0.00002°
Longitude
-58.59516°
Altitude
496.636 km
Speed
7.616 km/s
True Right ascension
21h 07m 05s
True Declination
0° 00' 00"
Sunlit
Object was in full shadow at epoch
Visualization orbit readout
Latitude
Unknown
Longitude
Unknown
Altitude
Unknown
Speed
Unknown
Apparent Right ascension
Unknown
Apparent Declination
Unknown
Sunlit
N/A
Visualization observer readout
Local Sidereal Time
01:14:59
Azimuth
Unknown
Elevation
Unknown
Doppler factor
Unknown
Orbital elements
Apogee altitude
492.91 km
Perigee altitude
488.466 km
Semi-major axis
6,868.825 km
Eccentricity
0.00032
Inclination
97.3923°
RAAN
316.772°
Arg. of periapsis
85.283°
True anomaly
274.84076°
Mean anomaly
274.8777°
Eccentric anomaly
274.85923°
Mean motion
3.81258 °/min
Orbital period
94.42 mins
BSTAR
0.00015336
Loading maneuver chart data...
Computing Atmospheric mass density...
Loading historical data...
Loading historical data...
Loading historical data...
Loading historical data...
Loading historical data...
Loading historical data...
Loading historical data...

Documentation

Showing up to 5 results
|